This is the latest recevied weather packets stored in our database for station/object N8JE-13. If no packets are shown the sender has not sent any weather packets the latest 1 day(s).
| Time | Temp. | Humidity | Pressure | Rain* | Wind** | Luminosity | Snow |
|---|---|---|---|---|---|---|---|
| 1778050851 | 7.22° C | 95% | 1006.9 hPa | 2.29 mm | - | - | - |
| 1778050552 | 7.22° C | 95% | 1006.7 hPa | 2.54 mm | - | - | - |
| 1778049351 | 7.22° C | 95% | 1006.8 hPa | 2.79 mm | - | - | - |
| 1778049052 | 7.22° C | 94% | 1006.7 hPa | 2.79 mm | - | - | - |
| 1778048752 | 7.22° C | 95% | 1006.8 hPa | 3.05 mm | - | - | - |
| 1778048152 | 7.22° C | 95% | 1007.1 hPa | 2.79 mm | - | - | - |
| 1778047851 | 7.22° C | 94% | 1007 hPa | 3.3 mm | - | - | - |
| 1778047551 | 7.22° C | 94% | 1006.9 hPa | 3.05 mm | - | - | - |
| 1778047251 | 7.22° C | 94% | 1007 hPa | 3.05 mm | - | - | - |
| 1778046950 | 7.22° C | 94% | 1007.1 hPa | 3.05 mm | - | - | - |
| 1778046650 | 7.22° C | 94% | 1007 hPa | 3.05 mm | - | - | - |
| 1778046351 | 7.22° C | 94% | 1007.2 hPa | 2.79 mm | - | - | - |
| 1778046051 | 7.22° C | 94% | 1007.3 hPa | 2.54 mm | - | - | - |
| 1778045751 | 7.22° C | 94% | 1007.5 hPa | 2.54 mm | - | - | - |
| 1778044851 | 7.78° C | 94% | 1007.5 hPa | 2.03 mm | - | - | - |
| 1778044551 | 7.78° C | 93% | 1007.4 hPa | 2.03 mm | - | - | - |
| 1778044251 | 7.78° C | 94% | 1007.2 hPa | 1.52 mm | - | - | - |
| 1778043351 | 8.33° C | 93% | 1006.9 hPa | 0 mm | - | - | - |
| 1778043052 | 8.89° C | 94% | 1006.9 hPa | 0 mm | - | - | - |
| 1778042752 | 8.89° C | 94% | 1007 hPa | 0 mm | - | - | - |
| 1778041551 | 8.89° C | 94% | 1007.3 hPa | 0 mm | - | - | - |
| 1778041251 | 8.89° C | 94% | 1007.1 hPa | 0 mm | - | - | - |
| 1778040951 | 8.89° C | 94% | 1007 hPa | 0 mm | - | - | - |
| 1778040651 | 8.89° C | 94% | 1006.9 hPa | 0 mm | - | - | - |
| 1778040050 | 9.44° C | 94% | 1006.8 hPa | 0 mm | - | - | - |
* Rain latest hour (hover to see other rain measurements)
** Current wind speed in m/s (hover to see current wind gust speed)